Location: Unspecified
(0.0000°N, 0.0000°E)
Time: 02:48:27
(UTC+00:00)

Hubble Space Telescope - Pass Details

Date: 18 April 2018
Orbit: 537 x 541 km, 28.5° (Epoch: 17 July)

Event Time Altitude Azimuth Distance (km) Brightness Sun altitude
Rises 20:07:31 0° 243° (WSW) 2,679 5.0 -31.4°
Reaches altitude 10° 20:09:47 10° 245° (WSW) 1,787 4.0 -31.9°
Enters shadow 20:10:44 17° 247° (WSW) 1,421 3.4 -32.2°
